Regional Weather Roundup
Issued by NWS

Home | Current Version | Previous Version | Graphics & Text | Print | Product List | Glossary Off
Versions: 1 2 3 4 5 6 7 8 9 10 11 12 13 14 15 16 17 18 19 20 21 22 23 24 25 26 27 28 29 30 31 32 33 34 35 36 37 38 39 40 41 42 43 44 45 46 47 48 49 50

000
ASUS43 KMPX 250110
RWRMN
WEATHER ROUNDUP FOR MINNESOTA
NATIONAL WEATHER SERVICE TWIN CITIES/CHANHASSEN MN
700 PM CST SAT FEB 24 2018


NOTE: "FAIR" INDICATES FEW OR NO CLOUDS BELOW 12,000 FEET WITH NO
SIGNIFICANT WEATHER AND/OR OBSTRUCTIONS TO VISIBILITY. N/A MEANS
CURRENT SKY AND/OR WEATHER CONDITIONS ARE NOT AVAILABLE.

MNZ060>063-068>070-250200-
   Twin Cities Metro

CITY           SKY/WX    TMP DP  RH WIND       PRES   REMARKS
TWIN CITIES    LGT SNOW  29  28  96 E12       29.59F VSB 3/4 WCI  19
ST PAUL        SNOW      29  28  96 E3        29.62F VSB 1/2
CRYSTAL        LGT SNOW  27  25  92 E7        29.59F VSB 1   WCI  19
BLAINE         LGT SNOW  28  28 100 NE7       29.61F VSB 1   WCI  21
LAKEVILLE      LGT SNOW  27  27 100 NE7       29.56F WCI  19
EDEN PRAIRIE   SNOW      28  25  88 NE7       29.57F VSB 1/2 WCI  21
SOUTH ST PAUL  MIX PCPN  29  29  99 CALM      29.60F
LAKE ELMO      LGT SNOW  30  28  93 NE6       29.62F VSB 3/4 WCI  24
$$
MNZ001>005-007-008-013>017-022>024-027-028-250200-
   Northwest Minnesota

CITY           SKY/WX    TMP DP  RH WIND       PRES   REMARKS
BEMIDJI        LGT SNOW  18  16  90 NE9       29.66F WCI   7
HALLOCK        LGT SNOW  18  14  86 S8        29.72F WCI   7
ROSEAU         MOCLDY    21  12  68 E3        29.72F
WARROAD        FAIR      21  12  68 SE6       29.73F WCI  14
THIEF RVR FALL LGT SNOW  19  16  88 E6        29.71F FOG     WCI  11
CROOKSTON      LGT SNOW  18  16  93 CALM      29.71F VSB 3/4
FOSSTON        LGT SNOW  18  12  79 NE6       29.68F WCI   9
DETROIT LAKES  LGT SNOW  21  19  93 E7        29.64S VSB 1   WCI  13
MOORHEAD       LGT SNOW  18  16  93 N8        29.66F WCI   7
PARK RAPIDS    SNOW      19  15  84 NE7       29.63F VSB 1/2 WCI  10
MAHNOMEN       LGT SNOW  19  18  93 NE9       29.65F WCI   9
$$
MNZ006-009>011-018-025>026-250200-
   North Central Minnesota

CITY           SKY/WX    TMP DP  RH WIND       PRES   REMARKS
BAUDETTE       CLOUDY    22  10  60 E6        29.71F WCI  14
FLAG ISLAND    FAIR      19  12  73 S5        29.73F WCI  13
INTL FALLS     CLOUDY    25  12  58 E6        29.74F WCI  18
WASKISH        CLOUDY    25  10  54 SE9       29.71F WCI  15
LONGVILLE      LGT SNOW  21  18  86 CALM      29.66S VSB 1
GRAND RAPIDS   LGT SNOW  23  18  81 E7        29.65F VSB 1   WCI  15
CRANE LAKE     CLOUDY    25  18  74 CALM      29.77F
ORR            CLOUDY    25  12  58 CALM      29.70F
COOK             N/A     25  14  63 E5        29.71F WCI  19
WALKER         LGT SNOW  19  16  89 NE6       29.66F WCI  10
$$
MNZ012-019>021-037-250200-
   Northeast Minnesota

CITY           SKY/WX    TMP DP  RH WIND       PRES   REMARKS
DULUTH         LGT SNOW  23  19  85 E15       29.68F WCI  10
ELY            CLOUDY    23  16  74 E6        29.74F WCI  16
HIBBING        LGT SNOW  23  18  81 E7        29.66F WCI  15
EVELETH        FLURRIES  27  14  59 E7        29.70F WCI  19
DULUTH HARBOR  LGT SNOW  27  25  93 NE24      29.75F WCI  12
TWO HARBORS    LGT SNOW  27  19  74 NE9       29.71F WCI  17
SILVER BAY     MOCLDY    25  19  80 NE10G21   29.74F WCI  15
GRAND MARAIS     N/A     26  17  68 NE8       29.83F WCI  18
G MARAIS ARPRT CLOUDY    21  10  63 NE10      29.77F WCI  10
$$
MNZ029>031-032-039>041-046>048-054>057-064-250200-
   West Central Minnesota

CITY           SKY/WX    TMP DP  RH WIND       PRES   REMARKS
FERGUS FALLS   LGT SNOW  19  18  93 E5        29.64F WCI  13
WHEATON        LGT SNOW  19  18  93 NW5       29.66F WCI  13
MORRIS         MIX PCPN  21  21 100 CALM      29.61F VSB 1
ALEXANDRIA     LGT SNOW  22  20  92 NE5       29.60F VSB 3/4 WCI  16
ELBOW LAKE     LGT SNOW  21  20  95 NE5       29.62F WCI  15
WADENA         LGT SNOW  19  18  93 NE6       29.62F VSB 3/4 WCI  11
GLENWOOD       LGT SNOW  21  21 100 E8        29.59F WCI  12
APPLETON       LGT SNOW  18  14  86 W5        29.63F WCI  11
BENSON         LGT SNOW  23  21  93 CALM      29.63F VSB 1
ORTONVILLE     FLURRIES  14  10  85 NW6       29.63F WCI   5
MADISON        CLOUDY    16  12  86 W6        29.64F WCI   7
WILLMAR        CLOUDY    25  23  93 SE5       29.61F WCI  19
$$
MNZ033>034-036-042>043-049>051-058-059-250200-
   Central Minnesota

CITY           SKY/WX    TMP DP  RH WIND       PRES   REMARKS
ST CLOUD       SNOW      25  25 100 E7        29.59F VSB 1/2 WCI  17
SAUK CENTRE    LGT SNOW  24  22  94 E6        29.59F VSB 3/4 WCI  16
PAYNESVILLE    LGT SNOW  25  24  99 E6        29.59F WCI  18
AITKIN         SNOW      21  19  93 NE5       29.62S VSB 1/2 WCI  15
PINE RIVER     LGT SNOW  19  18  93 NE6       29.67F VSB 3/4 WCI  11
BRAINERD       SNOW      24  20  84 NE7       29.61F VSB 1/2 WCI  16
STAPLES        SNOW      19  18  93 NE5       29.61F VSB 1/2 WCI  13
LONG PRAIRIE   LGT SNOW  25  23  93 NE6       29.60F VSB 1   WCI  18
LITTLE FALLS   LGT SNOW  27  23  86 E5        29.60F VSB 1   WCI  21
LITCHFIELD     LGT SNOW  27  27 100 E8        29.59F WCI  18
BUFFALO        LGT SNOW  27  25  93 NE9       29.61F VSB 3/4 WCI  17
MAPLE LAKE     SNOW      28  27  96 E12       29.61F VSB 1/2 WCI  17
HUTCHINSON     LGT SNOW  27  26  96 E10G17    29.58F VSB 1   WCI  17
$$
MNZ037-044-045-052-053-250200-
   East Central Minnesota

CITY           SKY/WX    TMP DP  RH WIND       PRES   REMARKS
PRINCETON      LGT SNOW  28  27  93 NE5       29.61F WCI  23
CAMBRIDGE      LGT SNOW  30  27  86 NE5       29.62F VSB 1   WCI  25
RUSH CITY      SNOW      28  26  95 NE9       29.62F VSB 1/2 WCI  19
MOOSE LAKE     SNOW      23  21  93 E9G16     29.62F VSB 1/2 WCI  13
HINCKLEY       SNOW      27  27 100 NE7       29.63F VSB 1/2 WCI  19
CLOQUET        LGT SNOW  23  19  86 E14G24    29.65F VSB 3/4 WCI  11
MCGREGOR       CLOUDY    25  21  86 E9G17     29.63F VSB 1/2 WCI  15
$$
MNZ071>073-080-081-089-090-097-098-250200-
   Southwest Minnesota

CITY           SKY/WX    TMP DP  RH WIND       PRES   REMARKS
MONTEVIDEO     LGT SNOW  14  12  92 NW8       29.63F WCI   3
GRANITE FALLS  LGT SNOW  16  14  91 W9        29.65S WCI   4
CANBY          CLOUDY    14  11  87 CALM      29.63F
MARSHALL       FLURRIES  16  13  88 W6        29.62F WCI   7
REDWOOD FALLS  LGT SNOW  23  21  92 W12       29.61R FOG     WCI  12
OLIVIA         LGT SNOW  27  23  86 E8        29.59F WCI  18
PIPESTONE      CLOUDY    19  16  86 W15       29.60S WCI   5
WORTHINGTON    LGT SNOW  20  18  92 W13       29.60F FOG     WCI   7
JACKSON        LGT SNOW  21  19  93 SW6       29.60S WCI  14
TRACY          CLOUDY    18  17  95 W5        29.60F WCI  11
SLAYTON        CLOUDY    18  17  93 SW7       29.60S WCI   9
$$
MNZ065>067-074>077-082>085-091>093-250200-
   South Central Minnesota

CITY           SKY/WX    TMP DP  RH WIND       PRES   REMARKS
MANKATO        SNOW      25  23  93 NE7       29.58F VSB 1/2 WCI  17
NEW ULM        LGT SNOW  25  23  93 E8        29.58F VSB 3/4 WCI  16
ST JAMES       LGT SNOW  21  21 100 W6        29.61R WCI  14
FAIRMONT       LGT SNOW  25  23  93 W13       29.60R FOG     WCI  13
GLENCOE        SNOW      27  27 100 NE7       29.59F VSB 1/2 WCI  19
FARIBAULT      LGT SNOW  27  25  93 NE5       29.57F VSB 1   WCI  21
OWATONNA       LGT SNOW  30  28  93 E7        29.56F WCI  23
WASECA         LGT SNOW  30  28  93 E5        29.58F VSB 3/4 WCI  25
ALBERT LEA     CLOUDY    30  30 100 CALM      29.55F
$$
MNZ078>079-086>088-094>096-250200-
   Southeast Minnesota

CITY           SKY/WX    TMP DP  RH WIND       PRES   REMARKS
ROCHESTER      LGT SNOW  31  30  96 S8        29.55F FOG     WCI  23
RED WING       LGT SNOW  32  28  86 E5        29.59F VSB 1   WCI  27
STANTON        LGT SNOW  29  27  93 N5        29.57F VSB 3/4 WCI  24
DODGE CENTER   LGT SNOW  30  28  93 CALM      29.56F
WINONA         LGT SNOW  34  32  93 SE9       29.57F WCI  26
AUSTIN         LGT SNOW  30  30 100 S3        29.57F VSB 3/4
PRESTON        LGT SNOW  31  30  96 SE7       29.55F VSB 1   WCI  24
$$
ABBREVIATIONS USED IN REMARKS
   TC - TEMPERATURES IN CELSIUS
  WCI - WIND CHILL INDEX
   HX - HEAT INDEX
  VSB - VISIBILITY
$$




USA.gov is the U.S. government's official web portal to all federal, state and local government web resources and services.